TIME,DELAY(SENSOR),PRES,T(CTD),SAL,OXYGEN,RAWTEMP,T(OPTODE),TCPHASE,FLUOR,BETA(BETA700),BETA(BETA412),BETA(BETA440),CDOM,C(CSC),ED(ED411.90),ED(ED443.80),ED(ED489.40),ED(ED554.70),LU(LU412.20),LU(LU443.80),LU(LU489.40),LU(LU555.00),COMP,TILTX,TILTX(TILTY),CHECK
1343575930,5806,494.3099975585937500,17.4353008270263670,36.4556007385253900,232.6855926513672000,174.0364074707031200,17.4312191009521500,31.0991401672363280,51,101,98,81,69,14261,2146953993,2147513682,2147265590,2147465810,2147086774,2146953846,2147649609,2147125028,1255,-2,8,52428
1343576057,5802,483.1199951171875000,17.5209999084472660,36.4740982055664060,234.1213073730468800,171.1634979248047000,17.5179004669189450,30.9906101226806640,50,99,97,80,68,14261,2146954029,2147513828,2147265929,2147466532,2147087442,2146952091,2147654016,2147121078,1591,-2,8,64490
1343576186,5807,471.7300109863281000,17.5772991180419920,36.4835014343261700,235.1237945556640600,169.4468994140625000,17.5697002410888670,30.9187602996826170,50,101,98,80,68,14258,2146951652,2147511451,2147266340,2147463305,2147088539,2146952283,2147649298,2147116022,1787,-2,8,20525
1343576313,5807,460.4200134277344000,17.6625995635986330,36.4995994567871100,235.6911926269531200,166.5198974609375000,17.6580295562744140,30.8517494201660160,51,101,97,79,67,14262,2146956946,2147513243,2147267602,2147466432,2147087012,2146952109,2147651017,2147123008,1812,-2,8,789
1343576440,5806,448.9200134277344000,17.7322998046875000,36.5111007690429700,236.0870056152343800,164.1728973388672000,17.7288608551025400,30.8013191223144530,50,104,99,81,66,14261,2146952649,2147514377,2147267410,2147465929,2147086802,2146959058,2147656018,2147116534,2099,-2,8,24050
1343576557,5806,438.0400085449219000,17.7782001495361330,36.5190010070800800,236.3056945800781200,162.6340026855468800,17.7753200531005860,30.7700691223144530,51,102,99,79,68,14260,2146955209,2147509129,2147268498,2147463488,2147087945,2146951652,2147649764,2147119433,2228,-2,8,33477
1343576672,5808,427.2200012207031000,17.8265991210937500,36.5273017883300800,236.6466064453125000,161.0256042480468800,17.8238697052001950,30.7321491241455080,50,101,98,79,67,14260,2146952740,2147510866,2147265654,2147462006,2147086665,2146955364,2147655085,2147115739,2743,-2,8,55441
1343576787,5803,416.4400024414062500,17.8680000305175780,36.5335998535156250,236.9878997802734400,159.7160034179687500,17.8634109497070300,30.6981296539306640,50,100,98,81,67,14259,2146955072,2147513462,2147268580,2147465398,2147086811,2146953280,2147653750,2147125586,3085,-2,8,27818
1343576904,5805,405.3699951171875000,17.9113006591796880,36.5409011840820300,237.2263031005859400,158.1414031982422000,17.9109497070312500,30.6657600402832030,50,101,98,80,66,14259,2146952896,2147514907,2147269888,2147462875,2147085101,2146958180,2147653604,2147119478,2948,-2,8,1965
1343577019,5805,394.4500122070312500,17.9594001770019530,36.5485992431640600,237.7136993408203000,156.6965026855468800,17.9545803070068360,30.6231708526611330,51,100,98,80,65,14259,2146953499,2147515556,2147270930,2147459620,2147090368,2146956754,2147650788,2147119625,3351,-2,8,52990
1343577134,5807,383.5799865722656000,17.9932994842529300,36.5527992248535160,237.4270019531250000,155.5798034667968800,17.9883003234863280,30.6219596862792970,50,101,97,80,67,14258,2146953078,2147515666,2147271085,2147462802,2147086692,2146947465,2147653385,2147119497,156,-2,8,58302
1343577251,5805,372.6199951171875000,18.0212993621826170,36.5564002990722660,236.7485046386718800,154.6053924560547000,18.0177307128906250,30.6411094665527340,50,102,98,80,67,14258,2146951744,2147511890,2147270509,2147462034,2147088182,2146955035,2147651904,2147122697,262,-2,8,39882
1343577378,5807,361.1499938964844000,18.0676002502441400,36.5628013610839840,236.4772949218750000,153.1190032958984400,18.0626201629638670,30.6344108581542970,51,101,98,81,67,14255,2146953325,2147515858,2147270592,2147462985,2147086912,2146956397,2147653257,2147121252,322,-2,8,63047
1343577507,5806,349.9599914550781000,18.1046009063720700,36.5654983520507800,235.7050933837890600,151.7973022460937500,18.1025505065917970,30.6538391113281250,51,100,98,80,67,14253,2146954715,2147516827,2147272493,2147462893,2147086884,2146956077,2147657097,2147119634,380,-2,8,27973
1343577634,5804,339.4700012207031000,18.1506996154785160,36.5709991455078100,235.3372039794922000,150.3314056396484400,18.1468296051025400,30.6520195007324220,51,103,98,80,67,14254,2146955684,2147513773,2147274496,2147460507,2147085028,2146958043,2147652562,2147117165,542,-2,8,33567
1343577773,5807,328.3900146484375000,18.2056007385253900,36.5772018432617200,234.6743927001953000,148.5046997070312500,18.2020092010498050,30.6596107482910160,50,102,99,81,66,14253,2146952027,2147513892,2147281234,2147459227,2147092772,2146961426,2147660873,2147118829,935,-2,8,9242
1343577914,5805,317.3900146484375000,18.2555999755859380,36.5830001831054700,233.7572021484375000,146.8054962158203000,18.2533607482910160,30.6810798645019530,50,104,99,81,66,14251,2146952128,2147517897,2147284946,2147460406,2147088566,2146956534,2147655753,2147122240,886,-2,8,59137
1343578053,5806,306.5100097656250000,18.3145999908447270,36.5872001647949200,232.7250061035156200,144.9064025878906200,18.3107395172119140,30.7058601379394530,50,103,98,81,67,14248,2146951030,2147520192,2147291785,2147460882,2147087542,2146960438,2147660114,2147120128,641,-2,8,30149
1343578200,5806,293.4599914550781000,18.4143009185791000,36.5946006774902340,231.2216033935547000,141.6544036865234400,18.4090309143066400,30.7358703613281250,51,104,98,82,68,14246,2146955008,2147520877,2147297892,2147459629,2147089856,2146962834,2147668644,2147123830,592,-2,8,48255
1343578303,5809,282.6700134277344000,18.4920997619628900,36.6008987426757800,230.7062988281250000,138.9340057373047000,18.4912700653076170,30.7248306274414060,51,104,99,81,67,14249,2146953188,2147524132,2147311963,2147459428,2147083913,2146965558,2147673856,2147121901,425,-2,8,20285
1343578406,5803,271.8399963378906000,18.5935001373291000,36.6046981811523440,228.9945983886718800,135.5818023681640600,18.5926399230957030,30.7646007537841800,52,104,99,81,68,14248,2146951826,2147536219,2147327442,2147459867,2147086912,2146965056,2147686281,2147116699,600,-2,7,21615
1343578524,5807,260.8399963378906000,18.6980991363525400,36.6071014404296900,227.9692993164062500,132.2774047851562500,18.6925792694091800,30.7712497711181640,51,105,98,82,67,14247,2146956013,2147541814,2147346678,2147459181,2147091410,2146972361,2147695616,2147127945,550,-2,8,35241
1343578663,5804,249.6600036621093800,18.8180999755859380,36.6048011779785160,229.0429992675781200,128.3531951904297000,18.8113002777099600,30.6659202575683600,51,105,99,80,67,14248,2146953069,2147555840,2147382354,2147455734,2147089014,2146984667,2147712621,2147126400,1178,-2,8,64473
1343578804,5806,238.9299926757812500,18.8544006347656250,36.5792007446289060,235.0077972412109400,126.9871978759765600,18.8526401519775400,30.3578796386718750,51,102,98,81,67,14248,2146958061,2147576475,2147429266,2147457462,2147089856,2147000521,2147739136,2147123812,108,-2,8,43066
1343578955,5808,228.0000000000000000,19.0361003875732420,36.5951004028320300,238.2023010253906200,120.9955978393554700,19.0340099334716800,30.1277008056640620,50,104,99,82,66,14248,2146959542,2147599122,2147487945,2147459739,2147090422,2147020077,2147771721,2147129609,715,-2,8,42855
1343579134,5806,214.7500000000000000,19.1501998901367200,36.5912017822265600,244.2812957763672000,117.2654037475586000,19.1469802856445300,29.7977409362792970,51,105,100,81,66,14250,2146965394,2147647177,2147597814,2147458578,2147095652,2147051318,2147835346,2147135972,472,-2,8,32062
1343579261,5805,203.5399932861328000,19.2520999908447270,36.5922012329101560,247.8150024414062500,114.0376968383789000,19.2447605133056640,29.5962791442871100,52,108,100,82,66,14247,2146971776,2147703616,2147718043,2147459209,2147097216,2147093979,2147910372,2147138605,662,-2,8,50753
1343579328,5808,197.6100006103515600,19.2780990600585940,36.5886993408203100,249.9158935546875000,113.0070037841796900,19.2759895324707030,29.4893894195556640,55,111,101,82,65,14239,2146975268,2147736877,2147803913,2147454592,2147100955,2147122852,2147956909,2147142052,894,-2,8,7643
1343579403,5806,191.3200073242187500,19.2647991180419920,36.5769004821777340,252.4317932128906200,113.6663970947265600,19.2560100555419920,29.3870391845703120,54,109,101,82,64,14237,2146985417,2147789312,2147906450,2147458578,2147107840,2147157613,2148018358,2147146706,837,-2,8,11551
1343579458,5805,187.0200042724609400,19.2686004638671880,36.5746994018554700,254.3549957275390600,113.3704986572265600,19.2649707794189450,29.2994804382324220,56,111,100,82,64,14239,2146992246,2147833508,2147994240,2147457069,2147112283,2147189604,2148063186,2147148416,767,-2,8,35243
1343579513,5804,182.6399993896484400,19.2898998260498050,36.5775985717773440,253.9194030761718800,112.6865997314453100,19.2856998443603500,29.3094596862792970,59,113,100,82,64,14235,2147001563,2147878372,2148098861,2147457078,2147114715,2147221814,2148122075,2147152292,1077,-2,8,19549
1343579568,5806,178.3300018310547000,19.2845001220703120,36.5699005126953100,253.8943023681640600,112.8534011840820300,19.2806396484375000,29.3129596710205080,64,118,100,82,65,14231,2147011355,2147938614,2148209033,2147455844,2147124708,2147261211,2148184137,2147153965,1134,-2,8,51239
1343579623,5805,174.0399932861328000,19.3143005371093750,36.5764999389648440,254.2709045410156200,111.9255981445312500,19.3087596893310550,29.2846107482910160,65,115,100,82,64,14229,2147021494,2147962029,2148268754,2147459712,2147125769,2147282605,2148212443,2147158381,955,-2,8,18323
1343579678,5806,169.7400054931640600,19.3327999114990230,36.5763015747070300,254.3809967041015600,111.2098999023437500,19.3304500579834000,29.2706699371337900,70,120,100,83,64,14221,2147039798,2148068800,2148484845,2147456283,2147121280,2147345508,2148316388,2147164480,867,-2,8,14106
1343579756,5807,164.0700073242187500,19.3497009277343750,36.5755004882812500,254.6141967773437500,110.6063995361328100,19.3487396240234380,29.2526493072509770,77,118,99,83,65,14219,2147065590,2148181120,2148710326,2147457014,2147148781,2147413979,2148433609,2147170112,884,-2,8,24081
1343579823,5807,159.7299957275390600,19.3565006256103500,36.5775985717773440,254.4485015869140600,110.4567031860351600,19.3532695770263670,29.2578392028808600,79,121,100,83,64,14210,2147087926,2148277595,2148891190,2147461220,2147156297,2147465737,2148511259,2147174729,805,-2,8,21295
1343579878,5807,156.1799926757812500,19.3654003143310550,36.5759010314941400,254.3115997314453000,110.1504974365234400,19.3625602722167970,29.2599906921386720,85,121,101,83,64,14208,2147122368,2148405156,2149130038,2147459574,2147177984,2147533229,2148629760,2147185298,760,-2,8,52221
1343579945,5807,151.8300018310547000,19.3973999023437500,36.5792007446289060,253.9049987792968800,109.1207962036132800,19.3937702178955080,29.2643604278564450,90,125,101,83,64,14199,2147181888,2148650724,2149599177,2147464749,2147205952,2147671661,2148837769,2147194560,798,-2,8,8364
1343580000,5806,148.3099975585937500,19.4141006469726560,36.5805015563964840,253.8161926269531200,108.6234970092773400,19.4088401794433600,29.2617301940917970,94,126,102,84,64,14191,2147233819,2148852242,2149931958,2147467318,2147235282,2147769197,2148986962,2147205184,924,-2,8,4039
1343580078,5805,143.6300048828125000,19.4283008575439450,36.5775985717773440,254.1921997070312500,108.1371994018554700,19.4235801696777340,29.2391605377197270,106,125,102,83,65,14187,2147328064,2149170660,2150484324,2147471515,2147279168,2147914203,2149215131,2147223332,812,-2,8,44412
1343580145,5806,140.0500030517578000,19.4470005035400400,36.5789985656738300,254.7776947021484400,107.5506973266601600,19.4413604736328120,29.2064609527587900,108,129,102,84,65,14185,2147412498,2149456338,2150973220,2147478034,2147311936,2148049746,2149407744,2147237613,956,-2,8,33166
1343580212,5802,136.3500061035156200,19.4568004608154300,36.5751991271972660,255.3285064697265600,107.1620025634765600,19.4531497955322270,29.1775703430175780,114,134,102,83,65,14182,2147511195,2149794468,2151536054,2147482459,2147351488,2148200274,2149638226,2147256109,1086,-2,8,23398
1343580279,5805,132.5500030517578000,19.4766998291015620,36.5755004882812500,256.3145141601562500,106.5748977661132800,19.4709491729736330,29.1276798248291000,117,126,102,83,65,14178,2147650889,2150240265,2152259520,2147497472,2147405037,2148382912,2149916754,2147276790,903,-3,8,60328
1343580360,5805,128.1600036621093800,19.5149993896484380,36.5760993957519500,257.7522888183594000,105.3664016723632800,19.5076007843017580,29.0506896972656250,122,122,102,83,67,14171,2147879689,2150910326,2153289490,2147510345,2147490148,2148644946,2150281490,2147308662,433,-2,8,57913
1343580427,5807,124.6299972534179700,19.5452995300292970,36.5783996582031250,260.5351867675781000,104.2931976318359400,19.5401401519775400,28.9193000793457030,120,121,101,83,68,14171,2148144137,2151648027,2154362285,2147523702,2147591030,2148927149,2150664036,2147336859,266,-2,8,900
1343580506,5806,120.5699996948242200,19.5839996337890620,36.5789985656738300,262.8275146484375000,103.0571975708007800,19.5776290893554700,28.8076400756835940,119,122,102,84,67,14166,2148497856,2152581668,2155646427,2147547693,2147709714,2149280512,2151133997,2147380059,238,-3,8,23874
1343580585,5807,116.7399978637695300,19.6012992858886720,36.5789985656738300,263.9732971191406000,102.4597015380859400,19.5957508087158200,28.7524890899658200,125,124,102,85,67,14158,2148907062,2153642998,2157146441,2147574537,2147861385,2149678857,2151651757,2147428699,115,-2,8,30145
1343580678,5807,112.6200027465820300,19.6466999053955080,36.5792999267578100,265.0620117187500000,101.1190032958984400,19.6364307403564450,28.6905899047851560,126,121,103,84,65,14150,2149456731,2154989805,2158961188,2147612123,2148058779,2150182272,2152293805,2147486354,3257,-2,8,6613
1343580781,5805,108.8099975585937500,19.6760997772216800,36.5811004638671900,267.0520019531250000,99.9735488891601600,19.6711807250976560,28.5945396423339840,128,121,103,85,67,14132,2150187830,2156671094,2161000530,2147661549,2148325138,2150819702,2153046683,2147565632,359,-3,8,48025
1343580920,5804,105.1299972534179700,19.7189998626709000,36.5816993713378900,268.5227050781250000,98.7131195068359400,19.7094192504882800,28.5189895629882800,119,123,102,83,67,14138,2151472256,2159479040,2164189549,2147731044,2148775588,2151824566,2154124681,2147671030,3102,-2,8,12862
1343581055,5802,100.9400024414062500,19.8169994354248050,36.5778007507324200,269.9198913574219000,95.2942733764648400,19.8131904602050780,28.4192504882812500,112,125,102,85,66,14128,2153405184,2163452653,2168380187,2147834468,2149530441,2153427236,2155794678,2147846692,1590,-2,9,2713
1343581110,5806,98.9199981689453100,19.8455009460449220,36.5806999206543000,270.4991149902344000,94.3838577270507800,19.8408298492431640,28.3845405578613280,110,124,103,84,65,14132,2154424777,2165478509,2170503862,2147899702,2149940096,2154313088,2156688173,2147939712,1640,-2,9,16915
1343581165,5806,97.0299987792968800,19.9111003875732420,36.5836982727050800,270.9565124511719000,92.0880279541015600,19.9105396270751950,28.3373298645019530,106,124,104,85,65,14125,2155449636,2167317558,2172166720,2147951021,2150387072,2155184722,2157502710,2148018148,1730,-2,8,42565
1343581232,5804,95.1500015258789000,19.9888992309570300,36.5870018005371100,273.3393859863281000,89.7907333374023400,19.9803199768066400,28.2136497497558600,103,127,103,85,65,14120,2156971456,2169997915,2174642002,2148026715,2151039067,2156463094,2158639030,2148119305,2165,-2,8,51371
1343581311,5807,92.8300018310546900,20.0393009185791000,36.5867996215820300,274.9880981445312500,87.7811889648437500,20.0413703918457030,28.1236305236816400,95,130,105,85,65,14113,2159573595,2174399862,2178647058,2148161389,2152140827,2158489142,2160404196,2148288713,2707,-2,8,30698
1343581366,5802,90.4599990844726600,20.2343997955322270,36.6055984497070300,275.3428955078125000,81.7613296508789000,20.2243404388427730,28.0343208312988280,89,130,105,87,64,14110,2162150582,2178667894,2182614656,2148300790,2153341211,2160707648,2162290532,2148462445,3111,-2,8,17456
1343581421,5804,87.9599990844726600,20.3260002136230470,36.6088981628418000,276.5910949707031000,78.3680419921875000,20.3275299072265620,27.9435100555419920,86,128,104,86,63,14093,2164917796,2183172891,2186888859,2148488932,2154670107,2163089325,2164292809,2148651840,2940,-2,8,26606
1343581476,5805,85.4000015258789000,20.4993000030517580,36.6325988769531250,275.9762878417969000,72.9166336059570300,20.4934101104736330,27.8995990753173830,85,129,103,86,62,14101,2167602505,2187166573,2190258889,2148668315,2156279378,2165890212,2166665298,2148861613,1920,-2,8,18646
1343581531,5807,82.9400024414062500,20.7031993865966800,36.6435012817382800,275.8888854980469000,66.6677169799804700,20.6837005615234380,27.8255100250244140,81,133,106,87,63,14105,2170637366,2191849837,2194685924,2148917997,2157974857,2168745252,2169048411,2149091547,1851,-2,8,34224
1343581586,5804,80.8099975585937500,20.7238998413085940,36.6371994018554700,277.6069946289062500,65.6117630004882800,20.7158699035644530,27.7457809448242200,79,129,105,87,62,14101,2173453814,2195631396,2197749878,2149107757,2159587611,2171202203,2170849133,2149270025,1701,-2,8,57893
1343581643,5805,78.7200012207031200,20.8197994232177730,36.6463012695312500,277.9404907226562500,62.5388908386230500,20.8095092773437500,27.6949195861816400,76,128,106,85,62,14095,2178039570,2201944932,2203206866,2149428105,2162156553,2175232201,2173993362,2149560274,1995,-2,8,30251
1343581698,5805,76.8000030517578100,21.0846996307373050,36.6786994934082000,277.1412963867187500,54.5089988708496100,21.0544109344482420,27.6265201568603500,72,127,105,86,61,14098,2181870793,2206992777,2207627209,2149732132,2164444928,2178581184,2176181842,2149786477,2789,-2,9,29879
1343581753,5808,74.9499969482421900,21.1728992462158200,36.6860008239746100,277.3351135253906000,51.1236686706543000,21.1577396392822270,27.5774402618408200,71,130,105,86,61,14106,2185934848,2212366976,2212369115,2150041124,2167168256,2182468022,2179161755,2150082358,246,-3,8,64229
1343581808,5806,72.8300018310546900,21.3120002746582030,36.6972999572753900,277.3801879882812500,46.5951499938964840,21.2960491180419920,27.5198593139648440,68,127,105,87,60,14114,2190580480,2218660050,2218281225,2150539126,2170085641,2186675593,2182298605,2150418258,194,-2,9,38873
1343581863,5804,70.5800018310546900,21.5121002197265620,36.7173004150390600,277.4455871582031000,42.1158103942871100,21.4329395294189450,27.4625205993652340,67,128,105,87,63,14111,2194603483,2223756333,2222877074,2151037238,2173007158,2190862016,2185449225,2150720329,3127,-2,8,27183
1343581918,5803,68.5000000000000000,21.5529003143310550,36.7230987548828100,277.7250061035156000,38.7302894592285160,21.5364704132080080,27.4101600646972660,68,128,106,87,59,14099,2198138587,2228330633,2227659108,2151634870,2175471396,2194123776,2187878070,2151021165,3216,-2,8,42397
1343581997,5806,65.5500030517578100,21.5484008789062500,36.7195014953613300,278.4848937988281000,38.4165611267089840,21.5460605621337900,27.3774108886718750,69,129,106,88,60,14097,2205938788,2237652379,2235325083,2152569398,2181763053,2202958299,2194400621,2151715867,2551,-2,8,25711
1343582052,5805,63.1599998474121100,21.4423999786376950,36.5980987548828100,279.9320068359375000,39.6163101196289060,21.5093708038330080,27.3369102478027340,68,132,107,88,62,14074,2214236992,2247077046,2243145316,2153457490,2186778998,2209014208,2198268269,2152141330,2856,-3,9,17505
1343582107,5806,61.7700004577636700,21.6149997711181640,36.5887985229492200,281.5936889648437500,36.5557289123535160,21.6029891967773440,27.2366104125976560,68,132,107,87,62,14063,2218785810,2251903579,2246722121,2153892150,2189982354,2213113837,2201115218,2152473810,2765,-3,9,46246
1343582186,5801,60.2999992370605500,21.7495994567871100,36.5843009948730500,282.4760131835937500,32.1220207214355500,21.7387104034423830,27.1493892669677730,69,132,106,88,63,14059,2225974838,2260397997,2254076562,2154842313,2195584804,2220416091,2206575360,2153106953,2010,-3,8,9358
1343582265,5806,58.2799987792968750,21.9920997619628900,36.5806007385253900,280.9382019042969000,24.4285793304443360,21.9744300842285160,27.1135997772216800,66,130,108,91,60,14069,2230939172,2265825490,2259050505,2155874112,2199470948,2225377078,2209948251,2153556333,2194,-2,9,9078
1343582355,5806,55.9900016784668000,22.0674991607666000,36.5824012756347660,280.2488098144531000,21.5255508422851560,22.0634498596191400,27.1042900085449220,68,132,107,86,61,14057,2241791085,2278854528,2271322496,2157856155,2207990820,2236343241,2217773586,2154489664,2580,-2,8,61658
1343582508,5808,52.8600006103515600,22.4843006134033200,36.5368003845214840,278.3940124511719000,9.5827007293701170,22.4301605224609380,27.0295906066894530,65,128,111,89,62,14063,2254361353,2291807533,2282226907,2159984548,2218928822,2248664731,2225545819,2155567369,2740,-2,8,6283
1343582542,5808,52.6300010681152340,22.5960006713867200,36.5420989990234400,278.0314025878906000,7.2344541549682620,22.5023498535156250,27.0147705078125000,64,130,107,89,61,14059,2252917293,2289483126,2279723254,2159662427,2218630381,2248040594,2225194560,2155483748,2760,-2,8,53993
1343582731,5803,50.7799987792968750,22.8469009399414060,36.5301017761230500,275.6297912597656000,-4.5164198875427250,22.8640899658203120,26.9640693664550780,62,136,106,87,60,14061,2267475254,2305653732,2293967725,2162053403,2232090029,2263070491,2234286445,2156697563,3388,-3,8,25277
1343583112,5804,48.6100006103515600,23.5435009002685550,36.5497016906738300,270.2782897949219000,-26.5788497924804700,23.5454597473144530,26.9039802551269530,58,128,107,88,60,14084,2279617316,2316788672,2302185152,2164566326,2254279433,2286592466,2248600137,2158366253,1442,-2,8,18133
1343583169,5803,46.5000000000000000,23.5967998504638670,36.5304985046386700,269.8443908691406000,-28.2237091064453120,23.5963802337646500,26.9009609222412100,59,126,106,87,60,14082,2290673572,2329086692,2314236617,2167402358,2263382409,2295765193,2254134875,2159310464,1013,-2,8,23597
1343583214,5806,44.8100013732910160,23.6629009246826170,36.5341987609863300,269.3349914550781000,-30.3899192810058600,23.6634693145751950,26.8946495056152340,58,126,105,87,58,14087,2296112493,2334926116,2320503433,2169868022,2268758884,2301258157,2257694144,2160030921,716,-2,9,8453
1343583269,5804,42.8199996948242200,23.7807998657226560,36.5424003601074200,268.6239929199219000,-34.0284881591796900,23.7762298583984380,26.8786106109619140,57,127,106,88,59,14091,2306494573,2346551890,2332665005,2174283501,2283168484,2317377280,2268157202,2161595913,214,-2,9,35346
1343583314,5805,40.8600006103515600,24.1471996307373050,36.5554008483886700,266.2208862304687500,-45.2008781433105500,24.1229991912841800,26.8381996154785160,57,126,103,87,58,14095,2315022482,2354641764,2339524178,2176758756,2299953033,2335958637,2281206226,2163702939,775,-2,8,36048
1343583395,5804,38.9399986267089840,24.2649993896484380,36.5477981567382800,264.5166931152344000,-49.7490692138671900,24.2644100189209000,26.8507900238037100,57,127,106,87,62,14102,2329509796,2372567552,2358605641,2182353014,2310409042,2344661750,2286136502,2164888786,1022,-2,9,57067
1343583571,5807,36.2000007629394500,24.1930999755859380,36.4483985900878900,264.3619995117187500,-48.9059295654296900,24.2381801605224600,26.8671302795410160,57,127,105,86,62,14104,2332201910,2370223981,2354048045,2185370468,2331836690,2365701138,2298762715,2167109065,830,-2,8,6535
1343583616,5807,34.4700012207031250,24.1660003662109380,36.3732986450195300,264.1624145507812500,-47.8390617370605500,24.2049999237060550,26.8879909515380860,55,129,106,85,59,14099,2348717138,2390238848,2375540736,2194040722,2348575670,2383154660,2310751305,2169582262,917,-2,8,42919